Year,Month,Day,Hour,Minute,Value (Times are PST for temperature in C)
2008,08,15,00,00,19.40
2008,08,15,00,01,19.40
2008,08,15,00,02,19.40
2008,08,15,00,03,19.30
2008,08,15,00,04,19.30
2008,08,15,00,05,19.30
2008,08,15,00,06,19.20
2008,08,15,00,07,19.20
2008,08,15,00,08,19.20
2008,08,15,00,09,19.20
2008,08,15,00,10,19.20
2008,08,15,00,11,19.20
2008,08,15,00,12,19.10
2008,08,15,00,13,19.10
2008,08,15,00,14,19.10
2008,08,15,00,15,19.10
2008,08,15,00,16,19.00
2008,08,15,00,17,19.00
2008,08,15,00,18,19.00
2008,08,15,00,19,18.90
2008,08,15,00,20,18.90
2008,08,15,00,21,18.90
2008,08,15,00,22,18.90
2008,08,15,00,23,18.80
2008,08,15,00,24,18.80
2008,08,15,00,25,18.80
2008,08,15,00,26,18.80
2008,08,15,00,27,18.80
2008,08,15,00,28,18.70
2008,08,15,00,29,18.70
2008,08,15,00,30,18.70
2008,08,15,00,31,18.70
2008,08,15,00,32,18.60
2008,08,15,00,33,18.60
2008,08,15,00,34,18.60
2008,08,15,00,35,18.60
2008,08,15,00,36,18.60
2008,08,15,00,37,18.60
2008,08,15,00,38,18.60
2008,08,15,00,39,18.50
2008,08,15,00,40,18.50
2008,08,15,00,41,18.40
2008,08,15,00,42,18.40
2008,08,15,00,43,18.40
2008,08,15,00,44,18.40
2008,08,15,00,45,18.40
2008,08,15,00,46,18.30
2008,08,15,00,47,18.30
2008,08,15,00,48,18.30
2008,08,15,00,49,18.30
2008,08,15,00,50,18.30
2008,08,15,00,51,18.30
2008,08,15,00,52,18.30
2008,08,15,00,53,18.30
2008,08,15,00,54,18.30
2008,08,15,00,55,18.30
2008,08,15,00,56,18.30
2008,08,15,00,57,18.30
2008,08,15,00,58,18.30
2008,08,15,00,59,18.30
2008,08,15,01,00,18.30
2008,08,15,01,01,18.30
2008,08,15,01,02,18.30
2008,08,15,01,03,18.30
2008,08,15,01,04,18.30
2008,08,15,01,05,18.30
2008,08,15,01,06,18.30
2008,08,15,01,07,18.30
2008,08,15,01,08,18.30
2008,08,15,01,09,18.20
2008,08,15,01,10,18.20
2008,08,15,01,11,18.20
2008,08,15,01,12,18.20
2008,08,15,01,13,18.20
2008,08,15,01,14,18.20
2008,08,15,01,15,18.20
2008,08,15,01,16,18.20
2008,08,15,01,17,18.20
2008,08,15,01,18,18.20
2008,08,15,01,19,18.20
2008,08,15,01,20,18.20
2008,08,15,01,21,18.10
2008,08,15,01,22,18.10
2008,08,15,01,23,18.10
2008,08,15,01,24,18.10
2008,08,15,01,25,18.10
2008,08,15,01,26,18.10
2008,08,15,01,27,18.10
2008,08,15,01,28,18.10
2008,08,15,01,29,18.00
2008,08,15,01,30,18.00
2008,08,15,01,31,18.00
2008,08,15,01,32,18.00
2008,08,15,01,33,17.90
2008,08,15,01,34,17.90
2008,08,15,01,35,17.90
2008,08,15,01,36,17.90
2008,08,15,01,37,17.90
2008,08,15,01,38,17.90
2008,08,15,01,39,17.90
2008,08,15,01,40,17.80
2008,08,15,01,41,17.80
2008,08,15,01,42,17.80
2008,08,15,01,43,17.80
2008,08,15,01,44,17.80
2008,08,15,01,45,17.80
2008,08,15,01,46,17.80
2008,08,15,01,47,17.80
2008,08,15,01,48,17.80
2008,08,15,01,49,17.80
2008,08,15,01,50,17.80
2008,08,15,01,51,17.80
2008,08,15,01,52,17.80
2008,08,15,01,53,17.70
2008,08,15,01,54,17.70
2008,08,15,01,55,17.70
2008,08,15,01,56,17.70
2008,08,15,01,57,17.70
2008,08,15,01,58,17.70
2008,08,15,01,59,17.70
2008,08,15,02,00,17.70
2008,08,15,02,01,17.70
2008,08,15,02,02,17.70
2008,08,15,02,03,17.70
2008,08,15,02,04,17.70
2008,08,15,02,05,17.60
2008,08,15,02,06,17.60
2008,08,15,02,07,17.60
2008,08,15,02,08,17.60
2008,08,15,02,09,17.60
2008,08,15,02,10,17.60
2008,08,15,02,11,17.60
2008,08,15,02,12,17.60
2008,08,15,02,13,17.60
2008,08,15,02,14,17.50
2008,08,15,02,15,17.50
2008,08,15,02,16,17.50
2008,08,15,02,17,17.50
2008,08,15,02,18,17.40
2008,08,15,02,19,17.40
2008,08,15,02,20,17.40
2008,08,15,02,21,17.40
2008,08,15,02,22,17.40
2008,08,15,02,23,17.40
2008,08,15,02,24,17.40
2008,08,15,02,25,17.50
2008,08,15,02,26,17.50
2008,08,15,02,27,17.50
2008,08,15,02,28,17.40
2008,08,15,02,29,17.40
2008,08,15,02,30,17.40
2008,08,15,02,31,17.40
2008,08,15,02,32,17.40
2008,08,15,02,33,17.40
2008,08,15,02,34,17.40
2008,08,15,02,35,17.40
2008,08,15,02,36,17.40
2008,08,15,02,37,17.40
2008,08,15,02,38,17.30
2008,08,15,02,39,17.30
2008,08,15,02,40,17.40
2008,08,15,02,41,17.40
2008,08,15,02,42,17.40
2008,08,15,02,43,17.40
2008,08,15,02,44,17.40
2008,08,15,02,45,17.40
2008,08,15,02,46,17.30
2008,08,15,02,47,17.30
2008,08,15,02,48,17.30
2008,08,15,02,49,17.30
2008,08,15,02,50,17.30
2008,08,15,02,51,17.30
2008,08,15,02,52,17.30
2008,08,15,02,53,17.30
2008,08,15,02,54,17.30
2008,08,15,02,55,17.30
2008,08,15,02,56,17.20
2008,08,15,02,57,17.20
2008,08,15,02,58,17.20
2008,08,15,02,59,17.20
2008,08,15,03,00,17.20
2008,08,15,03,01,17.20
2008,08,15,03,02,17.10
2008,08,15,03,03,17.10
2008,08,15,03,04,17.10
2008,08,15,03,05,17.10
2008,08,15,03,06,17.10
2008,08,15,03,07,17.10
2008,08,15,03,08,17.10
2008,08,15,03,09,17.00
2008,08,15,03,10,17.00
2008,08,15,03,11,17.00
2008,08,15,03,12,17.00
2008,08,15,03,13,17.00
2008,08,15,03,14,16.90
2008,08,15,03,15,16.90
2008,08,15,03,16,16.90
2008,08,15,03,17,16.90
2008,08,15,03,18,16.90
2008,08,15,03,19,16.90
2008,08,15,03,20,16.90
2008,08,15,03,21,16.90
2008,08,15,03,22,16.90
2008,08,15,03,23,16.90
2008,08,15,03,24,16.90
2008,08,15,03,25,17.00
2008,08,15,03,26,17.00
2008,08,15,03,27,17.00
2008,08,15,03,28,17.00
2008,08,15,03,29,17.00
2008,08,15,03,30,17.00
2008,08,15,03,31,17.00
2008,08,15,03,32,17.00
2008,08,15,03,33,17.00
2008,08,15,03,34,17.00
2008,08,15,03,35,16.90
2008,08,15,03,36,16.90
2008,08,15,03,37,16.90
2008,08,15,03,38,16.90
2008,08,15,03,39,16.90
2008,08,15,03,40,16.90
2008,08,15,03,41,16.80
2008,08,15,03,42,16.80
2008,08,15,03,43,16.80
2008,08,15,03,44,16.70
2008,08,15,03,45,16.70
2008,08,15,03,46,16.70
2008,08,15,03,47,16.60
2008,08,15,03,48,16.60
2008,08,15,03,49,16.60
2008,08,15,03,50,16.60
2008,08,15,03,51,16.60
2008,08,15,03,52,16.60
2008,08,15,03,53,16.50
2008,08,15,03,54,16.50
2008,08,15,03,55,16.50
2008,08,15,03,56,16.40
2008,08,15,03,57,16.40
2008,08,15,03,58,16.40
2008,08,15,03,59,16.40
2008,08,15,04,00,16.30
2008,08,15,04,01,16.30
2008,08,15,04,02,16.30
2008,08,15,04,03,16.30
2008,08,15,04,04,16.20
2008,08,15,04,05,16.20
2008,08,15,04,06,16.20
2008,08,15,04,07,16.20
2008,08,15,04,08,16.10
2008,08,15,04,09,16.10
2008,08,15,04,10,16.10
2008,08,15,04,11,16.00
2008,08,15,04,12,16.00
2008,08,15,04,13,16.00
2008,08,15,04,14,16.00
2008,08,15,04,15,16.00
2008,08,15,04,16,15.90
2008,08,15,04,17,15.90
2008,08,15,04,18,15.90
2008,08,15,04,19,15.90
2008,08,15,04,20,15.90
2008,08,15,04,21,15.90
2008,08,15,04,22,15.90
2008,08,15,04,23,15.90
2008,08,15,04,24,15.80
2008,08,15,04,25,15.80
2008,08,15,04,26,15.80
2008,08,15,04,27,15.80
2008,08,15,04,28,15.80
2008,08,15,04,29,15.80
2008,08,15,04,30,15.80
2008,08,15,04,31,15.80
2008,08,15,04,32,15.80
2008,08,15,04,33,15.80
2008,08,15,04,34,15.80
2008,08,15,04,35,15.80
2008,08,15,04,36,15.80
2008,08,15,04,37,15.80
2008,08,15,04,38,15.80
2008,08,15,04,39,15.80
2008,08,15,04,40,15.80
2008,08,15,04,41,15.80
2008,08,15,04,42,15.80
2008,08,15,04,43,15.80
2008,08,15,04,44,15.80
2008,08,15,04,45,15.80
2008,08,15,04,46,15.80
2008,08,15,04,47,15.80
2008,08,15,04,48,15.80
2008,08,15,04,49,15.70
2008,08,15,04,50,15.70
2008,08,15,04,51,15.70
2008,08,15,04,52,15.70
2008,08,15,04,53,15.70
2008,08,15,04,54,15.70
2008,08,15,04,55,15.70
2008,08,15,04,56,15.70
2008,08,15,04,57,15.70
2008,08,15,04,58,15.70
2008,08,15,04,59,15.70
2008,08,15,05,00,15.70
2008,08,15,05,01,15.70
2008,08,15,05,02,15.70
2008,08,15,05,03,15.60
2008,08,15,05,04,15.60
2008,08,15,05,05,15.60
2008,08,15,05,06,15.60
2008,08,15,05,07,15.60
2008,08,15,05,08,15.60
2008,08,15,05,09,15.60
2008,08,15,05,10,15.60
2008,08,15,05,11,15.60
2008,08,15,05,12,15.60
2008,08,15,05,13,15.60
2008,08,15,05,14,15.60
2008,08,15,05,15,15.70
2008,08,15,05,16,15.70
2008,08,15,05,17,15.70
2008,08,15,05,18,15.70
2008,08,15,05,19,15.70
2008,08,15,05,20,15.70
2008,08,15,05,21,15.70
2008,08,15,05,22,15.70
2008,08,15,05,23,15.70
2008,08,15,05,24,15.60
2008,08,15,05,25,15.60
2008,08,15,05,26,15.60
2008,08,15,05,27,15.60
2008,08,15,05,28,15.60
2008,08,15,05,29,15.60
2008,08,15,05,30,15.60
2008,08,15,05,31,15.60
2008,08,15,05,32,15.60
2008,08,15,05,33,15.60
2008,08,15,05,34,15.60
2008,08,15,05,35,15.60
2008,08,15,05,36,15.60
2008,08,15,05,37,15.50
2008,08,15,05,38,15.50
2008,08,15,05,39,15.50
2008,08,15,05,40,15.50
2008,08,15,05,41,15.50
2008,08,15,05,42,15.50
2008,08,15,05,43,15.50
2008,08,15,05,44,15.50
2008,08,15,05,45,15.50
2008,08,15,05,46,15.50
2008,08,15,05,47,15.50
2008,08,15,05,48,15.40
2008,08,15,05,49,15.40
2008,08,15,05,50,15.40
2008,08,15,05,51,15.40
2008,08,15,05,52,15.40
2008,08,15,05,53,15.40
2008,08,15,05,54,15.30
2008,08,15,05,55,15.30
2008,08,15,05,56,15.30
2008,08,15,05,57,15.30
2008,08,15,05,58,15.30
2008,08,15,05,59,15.30
2008,08,15,06,00,15.30
2008,08,15,06,01,15.30
2008,08,15,06,02,15.30
2008,08,15,06,03,15.30
2008,08,15,06,04,15.20
2008,08,15,06,05,15.20
2008,08,15,06,06,15.20
2008,08,15,06,07,15.20
2008,08,15,06,08,15.20
2008,08,15,06,09,15.20
2008,08,15,06,10,15.20
2008,08,15,06,11,15.20
2008,08,15,06,12,15.20
2008,08,15,06,13,15.20
2008,08,15,06,14,15.20
2008,08,15,06,15,15.20
2008,08,15,06,16,15.20
2008,08,15,06,17,15.20
2008,08,15,06,18,15.20
2008,08,15,06,19,15.20
2008,08,15,06,20,15.20
2008,08,15,06,21,15.20
2008,08,15,06,22,15.20
2008,08,15,06,23,15.20
2008,08,15,06,24,15.30
2008,08,15,06,25,15.30
2008,08,15,06,26,15.30
2008,08,15,06,27,15.30
2008,08,15,06,28,15.30
2008,08,15,06,29,15.30
2008,08,15,06,30,15.30
2008,08,15,06,31,15.30
2008,08,15,06,32,15.40
2008,08,15,06,33,15.40
2008,08,15,06,34,15.40
2008,08,15,06,35,15.40
2008,08,15,06,36,15.40
2008,08,15,06,37,15.40
2008,08,15,06,38,15.40
2008,08,15,06,39,15.40
2008,08,15,06,40,15.40
2008,08,15,06,41,15.40
2008,08,15,06,42,15.40
2008,08,15,06,43,15.40
2008,08,15,06,44,15.40
2008,08,15,06,45,15.40
2008,08,15,06,46,15.40
2008,08,15,06,47,15.40
2008,08,15,06,48,15.40
2008,08,15,06,49,15.50
2008,08,15,06,50,15.50
2008,08,15,06,51,15.50
2008,08,15,06,52,15.50
2008,08,15,06,53,15.60
2008,08,15,06,54,15.60
2008,08,15,06,55,15.60
2008,08,15,06,56,15.60
2008,08,15,06,57,15.70
2008,08,15,06,58,15.70
2008,08,15,06,59,15.70
2008,08,15,07,00,15.70
2008,08,15,07,01,15.70
2008,08,15,07,02,15.80
2008,08,15,07,03,15.80
2008,08,15,07,04,15.80
2008,08,15,07,05,15.80
2008,08,15,07,06,15.90
2008,08,15,07,07,15.90
2008,08,15,07,08,15.90
2008,08,15,07,09,15.90
2008,08,15,07,10,15.90
2008,08,15,07,11,15.90
2008,08,15,07,12,15.90
2008,08,15,07,13,15.90
2008,08,15,07,14,15.90
2008,08,15,07,15,15.90
2008,08,15,07,16,15.90
2008,08,15,07,17,15.90
2008,08,15,07,18,15.90
2008,08,15,07,19,15.90
2008,08,15,07,20,15.90
2008,08,15,07,21,15.90
2008,08,15,07,22,15.90
2008,08,15,07,23,15.90
2008,08,15,07,24,15.90
2008,08,15,07,25,15.90
2008,08,15,07,26,15.90
2008,08,15,07,27,16.00
2008,08,15,07,28,16.00
2008,08,15,07,29,16.00
2008,08,15,07,30,16.10
2008,08,15,07,31,16.10
2008,08,15,07,32,16.10
2008,08,15,07,33,16.20
2008,08,15,07,34,16.20
2008,08,15,07,35,16.20
2008,08,15,07,36,16.30
2008,08,15,07,37,16.30
2008,08,15,07,38,16.30
2008,08,15,07,39,16.40
2008,08,15,07,40,16.50
2008,08,15,07,41,16.50
2008,08,15,07,42,16.60
2008,08,15,07,43,16.60
2008,08,15,07,44,16.70
2008,08,15,07,45,16.70
2008,08,15,07,46,16.80
2008,08,15,07,47,16.80
2008,08,15,07,48,16.90
2008,08,15,07,49,16.90
2008,08,15,07,50,17.00
2008,08,15,07,51,17.00
2008,08,15,07,52,17.10
2008,08,15,07,53,17.10
2008,08,15,07,54,17.20
2008,08,15,07,55,17.20
2008,08,15,07,56,17.30
2008,08,15,07,57,17.30
2008,08,15,07,58,17.40
2008,08,15,07,59,17.50
2008,08,15,08,00,17.50
2008,08,15,08,01,17.60
2008,08,15,08,02,17.60
2008,08,15,08,03,17.70
2008,08,15,08,04,17.70
2008,08,15,08,05,17.70
2008,08,15,08,06,17.80
2008,08,15,08,07,17.80
2008,08,15,08,08,17.90
2008,08,15,08,09,17.90
2008,08,15,08,10,18.00
2008,08,15,08,11,18.00
2008,08,15,08,12,18.10
2008,08,15,08,13,18.20
2008,08,15,08,14,18.20
2008,08,15,08,15,18.30
2008,08,15,08,16,18.30
2008,08,15,08,17,18.40
2008,08,15,08,18,18.50
2008,08,15,08,19,18.50
2008,08,15,08,20,18.60
2008,08,15,08,21,18.70
2008,08,15,08,22,18.70
2008,08,15,08,23,18.80
2008,08,15,08,24,18.90
2008,08,15,08,25,19.00
2008,08,15,08,26,19.10
2008,08,15,08,27,19.20
2008,08,15,08,28,19.30
2008,08,15,08,29,19.40
2008,08,15,08,30,19.40
2008,08,15,08,31,19.50
2008,08,15,08,32,19.60
2008,08,15,08,33,19.70
2008,08,15,08,34,19.80
2008,08,15,08,35,19.90
2008,08,15,08,36,20.00
2008,08,15,08,37,20.10
2008,08,15,08,38,20.20
2008,08,15,08,39,20.30
2008,08,15,08,40,20.40
2008,08,15,08,41,20.50
2008,08,15,08,42,20.60
2008,08,15,08,43,20.70
2008,08,15,08,44,20.80
2008,08,15,08,45,20.90
2008,08,15,08,46,21.00
2008,08,15,08,47,21.10
2008,08,15,08,48,21.20
2008,08,15,08,49,21.30
2008,08,15,08,50,21.40
2008,08,15,08,51,21.50
2008,08,15,08,52,21.60
2008,08,15,08,53,21.70
2008,08,15,08,54,21.80
2008,08,15,08,55,21.90
2008,08,15,08,56,21.90
2008,08,15,08,57,22.00
2008,08,15,08,58,22.10
2008,08,15,08,59,22.20
2008,08,15,09,00,22.30
2008,08,15,09,01,22.30
2008,08,15,09,02,22.30
2008,08,15,09,03,22.40
2008,08,15,09,04,22.50
2008,08,15,09,05,22.60
2008,08,15,09,06,22.60
2008,08,15,09,07,22.70
2008,08,15,09,08,22.80
2008,08,15,09,09,22.90
2008,08,15,09,10,22.90
2008,08,15,09,11,23.00
2008,08,15,09,12,23.10
2008,08,15,09,13,23.10
2008,08,15,09,14,23.10
2008,08,15,09,15,23.20
2008,08,15,09,16,23.20
2008,08,15,09,17,23.30
2008,08,15,09,18,23.40
2008,08,15,09,19,23.50
2008,08,15,09,20,23.50
2008,08,15,09,21,23.50
2008,08,15,09,22,23.60
2008,08,15,09,23,23.60
2008,08,15,09,24,23.70
2008,08,15,09,25,23.70
2008,08,15,09,26,23.80
2008,08,15,09,27,23.80
2008,08,15,09,28,23.90
2008,08,15,09,29,24.00
2008,08,15,09,30,24.00
2008,08,15,09,31,24.10
2008,08,15,09,32,24.20
2008,08,15,09,33,24.20
2008,08,15,09,34,24.30
2008,08,15,09,35,24.40
2008,08,15,09,36,24.40
2008,08,15,09,37,24.50
2008,08,15,09,38,24.50
2008,08,15,09,39,24.60
2008,08,15,09,40,24.60
2008,08,15,09,41,24.70
2008,08,15,09,42,24.70
2008,08,15,09,43,24.80
2008,08,15,09,44,24.80
2008,08,15,09,45,24.90
2008,08,15,09,46,24.90
2008,08,15,09,47,25.00
2008,08,15,09,48,25.00
2008,08,15,09,49,25.10
2008,08,15,09,50,25.10
2008,08,15,09,51,25.10
2008,08,15,09,52,25.20
2008,08,15,09,53,25.20
2008,08,15,09,54,25.20
2008,08,15,09,55,25.30
2008,08,15,09,56,25.30
2008,08,15,09,57,25.30
2008,08,15,09,58,25.40
2008,08,15,09,59,25.50
2008,08,15,10,00,25.60
2008,08,15,10,01,25.60
2008,08,15,10,02,25.60
2008,08,15,10,03,25.70
2008,08,15,10,04,25.70
2008,08,15,10,05,25.80
2008,08,15,10,06,25.90
2008,08,15,10,07,25.90
2008,08,15,10,08,25.90
2008,08,15,10,09,26.10
2008,08,15,10,10,26.20
2008,08,15,10,11,26.30
2008,08,15,10,12,26.30
2008,08,15,10,13,26.30
2008,08,15,10,14,26.30
2008,08,15,10,15,26.40
2008,08,15,10,16,26.40
2008,08,15,10,17,26.40
2008,08,15,10,18,26.40
2008,08,15,10,19,26.40
2008,08,15,10,20,26.50
2008,08,15,10,21,26.60
2008,08,15,10,22,26.70
2008,08,15,10,23,26.80
2008,08,15,10,24,26.80
2008,08,15,10,25,26.80
2008,08,15,10,26,26.90
2008,08,15,10,27,27.00
2008,08,15,10,28,27.10
2008,08,15,10,29,27.20
2008,08,15,10,30,27.30
2008,08,15,10,31,27.40
2008,08,15,10,32,27.50
2008,08,15,10,33,27.60
2008,08,15,10,34,27.70
2008,08,15,10,35,27.80
2008,08,15,10,36,27.70
2008,08,15,10,37,27.60
2008,08,15,10,38,27.50
2008,08,15,10,39,27.40
2008,08,15,10,40,27.40
2008,08,15,10,41,27.40
2008,08,15,10,42,27.40
2008,08,15,10,43,27.40
2008,08,15,10,44,27.40
2008,08,15,10,45,27.40
2008,08,15,10,46,27.30
2008,08,15,10,47,27.30
2008,08,15,10,48,27.30
2008,08,15,10,49,27.20
2008,08,15,10,50,27.20
2008,08,15,10,51,27.20
2008,08,15,10,52,27.10
2008,08,15,10,53,27.10
2008,08,15,10,54,27.00
2008,08,15,10,55,27.00
2008,08,15,10,56,26.90
2008,08,15,10,57,26.90
2008,08,15,10,58,26.90
2008,08,15,10,59,27.00
2008,08,15,11,00,27.10
2008,08,15,11,01,27.10
2008,08,15,11,02,27.10
2008,08,15,11,03,27.10
2008,08,15,11,04,27.10
2008,08,15,11,05,27.10
2008,08,15,11,06,27.10
2008,08,15,11,07,27.00
2008,08,15,11,08,26.90
2008,08,15,11,09,26.90
2008,08,15,11,10,26.80
2008,08,15,11,11,26.80
2008,08,15,11,12,26.80
2008,08,15,11,13,26.80
2008,08,15,11,14,26.70
2008,08,15,11,15,26.70
2008,08,15,11,16,26.60
2008,08,15,11,17,26.50
2008,08,15,11,18,26.40
2008,08,15,11,19,26.30
2008,08,15,11,20,26.20
2008,08,15,11,21,26.20
2008,08,15,11,22,26.20
2008,08,15,11,23,26.10
2008,08,15,11,24,26.20
2008,08,15,11,25,26.20
2008,08,15,11,26,26.30
2008,08,15,11,27,26.30
2008,08,15,11,28,26.40
2008,08,15,11,29,26.50
2008,08,15,11,30,26.60
2008,08,15,11,31,26.70
2008,08,15,11,32,26.80
2008,08,15,11,33,26.90
2008,08,15,11,34,27.00
2008,08,15,11,35,27.10
2008,08,15,11,36,27.20
2008,08,15,11,37,27.20
2008,08,15,11,38,27.30
2008,08,15,11,39,27.30
2008,08,15,11,40,27.40
2008,08,15,11,41,27.40
2008,08,15,11,42,27.40
2008,08,15,11,43,27.30
2008,08,15,11,44,27.20
2008,08,15,11,45,27.10
2008,08,15,11,46,27.10
2008,08,15,11,47,27.10
2008,08,15,11,48,27.10
2008,08,15,11,49,27.10
2008,08,15,11,50,27.20
2008,08,15,11,51,27.20
2008,08,15,11,52,27.30
2008,08,15,11,53,27.40
2008,08,15,11,54,27.50
2008,08,15,11,55,27.60
2008,08,15,11,56,27.80
2008,08,15,11,57,27.90
2008,08,15,11,58,28.10
2008,08,15,11,59,28.20
2008,08,15,12,00,28.40
2008,08,15,12,01,28.60
2008,08,15,12,02,28.70
2008,08,15,12,03,28.90
2008,08,15,12,04,29.00
2008,08,15,12,05,29.00
2008,08,15,12,06,28.90
2008,08,15,12,07,28.80
2008,08,15,12,08,28.80
2008,08,15,12,09,28.70
2008,08,15,12,10,28.60
2008,08,15,12,11,28.40
2008,08,15,12,12,28.10
2008,08,15,12,13,28.00
2008,08,15,12,14,27.90
2008,08,15,12,15,27.80
2008,08,15,12,16,27.80
2008,08,15,12,17,27.70
2008,08,15,12,18,27.70
2008,08,15,12,19,27.70
2008,08,15,12,20,27.80
2008,08,15,12,21,27.90
2008,08,15,12,22,28.00
2008,08,15,12,23,28.10
2008,08,15,12,24,28.10
2008,08,15,12,25,27.90
2008,08,15,12,26,27.70
2008,08,15,12,27,27.40
2008,08,15,12,28,27.10
2008,08,15,12,29,26.90
2008,08,15,12,30,26.70
2008,08,15,12,31,26.40
2008,08,15,12,32,26.20
2008,08,15,12,33,25.90
2008,08,15,12,34,25.80
2008,08,15,12,35,25.60
2008,08,15,12,36,25.50
2008,08,15,12,37,25.50
2008,08,15,12,38,25.50
2008,08,15,12,39,25.50
2008,08,15,12,40,25.40
2008,08,15,12,41,25.30
2008,08,15,12,42,25.20
2008,08,15,12,43,25.20
2008,08,15,12,44,25.20
2008,08,15,12,45,25.20
2008,08,15,12,46,25.20
2008,08,15,12,47,25.20
2008,08,15,12,48,25.10
2008,08,15,12,49,25.00
2008,08,15,12,50,25.00
2008,08,15,12,51,24.90
2008,08,15,12,52,24.90
2008,08,15,12,53,24.90
2008,08,15,12,54,24.90
2008,08,15,12,55,24.90
2008,08,15,12,56,24.90
2008,08,15,12,57,24.80
2008,08,15,12,58,24.70
2008,08,15,12,59,24.70
2008,08,15,13,00,24.70
2008,08,15,13,01,24.70
2008,08,15,13,02,24.60
2008,08,15,13,03,24.60
2008,08,15,13,04,24.60
2008,08,15,13,05,24.70
2008,08,15,13,06,24.70
2008,08,15,13,07,24.80
2008,08,15,13,08,24.80
2008,08,15,13,09,24.80
2008,08,15,13,10,24.90
2008,08,15,13,11,24.80
2008,08,15,13,12,24.80
2008,08,15,13,13,24.80
2008,08,15,13,14,24.80
2008,08,15,13,15,24.80
2008,08,15,13,16,24.80
2008,08,15,13,17,24.80
2008,08,15,13,18,24.80
2008,08,15,13,19,24.80
2008,08,15,13,20,24.80
2008,08,15,13,21,24.80
2008,08,15,13,22,24.80
2008,08,15,13,23,24.80
2008,08,15,13,24,24.80
2008,08,15,13,25,24.70
2008,08,15,13,26,24.70
2008,08,15,13,27,24.70
2008,08,15,13,28,24.70
2008,08,15,13,29,24.70
2008,08,15,13,30,24.80
2008,08,15,13,31,24.80
2008,08,15,13,32,24.90
2008,08,15,13,33,25.00
2008,08,15,13,34,25.10
2008,08,15,13,35,25.10
2008,08,15,13,36,25.20
2008,08,15,13,37,25.30
2008,08,15,13,38,25.40
2008,08,15,13,39,25.40
2008,08,15,13,40,25.50
2008,08,15,13,41,25.50
2008,08,15,13,42,25.60
2008,08,15,13,43,25.70
2008,08,15,13,44,25.80
2008,08,15,13,45,25.90
2008,08,15,13,46,26.00
2008,08,15,13,47,26.10
2008,08,15,13,48,26.10
2008,08,15,13,49,26.10
2008,08,15,13,50,26.00
2008,08,15,13,51,26.00
2008,08,15,13,52,26.00
2008,08,15,13,53,25.90
2008,08,15,13,54,25.90
2008,08,15,13,55,25.90
2008,08,15,13,56,25.90
2008,08,15,13,57,25.90
2008,08,15,13,58,25.90
2008,08,15,13,59,25.90
2008,08,15,14,00,25.80
2008,08,15,14,01,25.80
2008,08,15,14,02,25.90
2008,08,15,14,03,25.90
2008,08,15,14,04,25.90
2008,08,15,14,05,25.90
2008,08,15,14,06,25.90
2008,08,15,14,07,25.90
2008,08,15,14,08,25.90
2008,08,15,14,09,25.90
2008,08,15,14,10,25.90
2008,08,15,14,11,25.90
2008,08,15,14,12,25.90
2008,08,15,14,13,25.90
2008,08,15,14,14,25.90
2008,08,15,14,15,25.90
2008,08,15,14,16,25.90
2008,08,15,14,17,25.90
2008,08,15,14,18,25.90
2008,08,15,14,19,25.90
2008,08,15,14,20,25.90
2008,08,15,14,21,26.00
2008,08,15,14,22,26.00
2008,08,15,14,23,25.90
2008,08,15,14,24,25.90
2008,08,15,14,25,25.90
2008,08,15,14,26,25.90
2008,08,15,14,27,26.00
2008,08,15,14,28,26.00
2008,08,15,14,29,26.10
2008,08,15,14,30,26.00
2008,08,15,14,31,26.00
2008,08,15,14,32,26.00
2008,08,15,14,33,25.90
2008,08,15,14,34,25.90
2008,08,15,14,35,25.90
2008,08,15,14,36,25.90
2008,08,15,14,37,25.90
2008,08,15,14,38,25.90
2008,08,15,14,39,25.80
2008,08,15,14,40,25.80
2008,08,15,14,41,25.80
2008,08,15,14,42,25.80
2008,08,15,14,43,25.80
2008,08,15,14,44,25.80
2008,08,15,14,45,25.90
2008,08,15,14,46,25.90
2008,08,15,14,47,25.90
2008,08,15,14,48,25.90
2008,08,15,14,49,25.90
2008,08,15,14,50,25.90
2008,08,15,14,51,25.90
2008,08,15,14,52,25.90
2008,08,15,14,53,25.80
2008,08,15,14,54,25.80
2008,08,15,14,55,25.70
2008,08,15,14,56,25.70
2008,08,15,14,57,25.70
2008,08,15,14,58,25.70
2008,08,15,14,59,25.70
2008,08,15,15,00,25.70
2008,08,15,15,01,25.80
2008,08,15,15,02,25.80
2008,08,15,15,03,25.80
2008,08,15,15,04,25.90
2008,08,15,15,05,25.90
2008,08,15,15,06,25.90
2008,08,15,15,07,25.90
2008,08,15,15,08,26.00
2008,08,15,15,09,26.00
2008,08,15,15,10,26.00
2008,08,15,15,11,26.10
2008,08,15,15,12,26.10
2008,08,15,15,13,26.10
2008,08,15,15,14,26.10
2008,08,15,15,15,26.00
2008,08,15,15,16,25.90
2008,08,15,15,17,26.00
2008,08,15,15,18,26.00
2008,08,15,15,19,26.00
2008,08,15,15,20,26.00
2008,08,15,15,21,25.90
2008,08,15,15,22,25.90
2008,08,15,15,23,25.90
2008,08,15,15,24,25.90
2008,08,15,15,25,25.90
2008,08,15,15,26,25.90
2008,08,15,15,27,26.00
2008,08,15,15,28,26.00
2008,08,15,15,29,26.00
2008,08,15,15,30,26.10
2008,08,15,15,31,26.10
2008,08,15,15,32,26.20
2008,08,15,15,33,26.30
2008,08,15,15,34,26.40
2008,08,15,15,35,26.50
2008,08,15,15,36,26.60
2008,08,15,15,37,26.60
2008,08,15,15,38,26.70
2008,08,15,15,39,26.80
2008,08,15,15,40,26.90
2008,08,15,15,41,27.00
2008,08,15,15,42,27.10
2008,08,15,15,43,27.10
2008,08,15,15,44,27.20
2008,08,15,15,45,27.30
2008,08,15,15,46,27.40
2008,08,15,15,47,27.50
2008,08,15,15,48,27.60
2008,08,15,15,49,27.60
2008,08,15,15,50,27.70
2008,08,15,15,51,27.80
2008,08,15,15,52,27.90
2008,08,15,15,53,27.90
2008,08,15,15,54,27.90
2008,08,15,15,55,28.00
2008,08,15,15,56,28.20
2008,08,15,15,57,28.30
2008,08,15,15,58,28.40
2008,08,15,15,59,28.50
2008,08,15,16,00,28.70
2008,08,15,16,01,28.70
2008,08,15,16,02,28.70
2008,08,15,16,03,28.70
2008,08,15,16,04,28.80
2008,08,15,16,05,28.80
2008,08,15,16,06,28.90
2008,08,15,16,07,28.90
2008,08,15,16,08,29.00
2008,08,15,16,09,29.10
2008,08,15,16,10,29.10
2008,08,15,16,11,29.10
2008,08,15,16,12,29.10
2008,08,15,16,13,29.00
2008,08,15,16,14,29.00
2008,08,15,16,15,29.00
2008,08,15,16,16,29.00
2008,08,15,16,17,29.00
2008,08,15,16,18,29.00
2008,08,15,16,19,29.00
2008,08,15,16,20,29.00
2008,08,15,16,21,28.90
2008,08,15,16,22,28.80
2008,08,15,16,23,28.80
2008,08,15,16,24,28.80
2008,08,15,16,25,28.80
2008,08,15,16,26,28.80
2008,08,15,16,27,28.80
2008,08,15,16,28,28.90
2008,08,15,16,29,28.90
2008,08,15,16,30,29.00
2008,08,15,16,31,29.10
2008,08,15,16,32,29.10
2008,08,15,16,33,29.10
2008,08,15,16,34,29.10
2008,08,15,16,35,29.10
2008,08,15,16,36,29.00
2008,08,15,16,37,29.00
2008,08,15,16,38,28.90
2008,08,15,16,39,28.90
2008,08,15,16,40,28.90
2008,08,15,16,41,28.90
2008,08,15,16,42,29.00
2008,08,15,16,43,29.10
2008,08,15,16,44,29.10
2008,08,15,16,45,29.10
2008,08,15,16,46,29.00
2008,08,15,16,47,28.90
2008,08,15,16,48,28.90
2008,08,15,16,49,28.80
2008,08,15,16,50,28.70
2008,08,15,16,51,28.60
2008,08,15,16,52,28.40
2008,08,15,16,53,28.20
2008,08,15,16,54,28.00
2008,08,15,16,55,27.90
2008,08,15,16,56,27.90
2008,08,15,16,57,27.80
2008,08,15,16,58,27.80
2008,08,15,16,59,27.80
2008,08,15,17,00,27.70
2008,08,15,17,01,27.70
2008,08,15,17,02,27.80
2008,08,15,17,03,27.80
2008,08,15,17,04,27.80
2008,08,15,17,05,27.70
2008,08,15,17,06,27.70
2008,08,15,17,07,27.60
2008,08,15,17,08,27.50
2008,08,15,17,09,27.30
2008,08,15,17,10,27.30
2008,08,15,17,11,27.20
2008,08,15,17,12,27.10
2008,08,15,17,13,27.00
2008,08,15,17,14,26.90
2008,08,15,17,15,26.80
2008,08,15,17,16,26.80
2008,08,15,17,17,26.80
2008,08,15,17,18,26.80
2008,08,15,17,19,26.80